sat.trackr.live / text

‹ back to catalog

LEMUR-2-PETERG

NORAD 42841 · 2017-042S

PAYLOAD ACTIVE UNKNOWN

§ Identity

Operator
Country
US
Launch date
2017-07-14
Launch site
TYMSC
Launch vehicle
Mass (kg)
RCS (m²)

Purposes: earth_obs

External: N2YO · Heavens-Above · Gunter

§ Orbital elements

Epoch: 2026-05-24T22:25:01.386048Z

Period
93.95 min
Inclination
97.3995°
Eccentricity
0.0004976
Mean motion
15.32771177 rev/d
Perigee alt
464.1 km
Apogee alt
471.0 km
Semi-major
6,845.7 km
B*
5.4598e-4
RAAN
329.9468°
Arg perigee
75.1495°
Mean anomaly
285.0298°
Rev number
48,487

§ Raw data

LEMUR-2-PETERG1 42841U 17042S   26144.93404382  .00017227  00000+0  54598-3 0  99952 42841  97.3995 329.9468 0004976  75.1495 285.0298 15.32771177484877

JSON: /api/v1/satellites/42841 · /tle

For live sub-satellite position, see the globe view (requires WebGL).

§ Visibility from observer

Set your observer location to see the next 7 days of passes ≥ 10°. The values pass through the URL so the page stays shareable.

No JS? Fill the form by hand. The geolocation button needs JavaScript.

§ Radio — SatNOGS DB

ModeDescriptionDownlinkUplink
FM Mode U - Unknown 402.700 MHz

1 transmitter · refreshed weekly from db.satnogs.org